Location: Unspecified
(51.0950°N, 12.9690°E)
Time: 06:39:30
(UTC+00:00)

ATLAS 3B R/B - Pass Details

Date: 25 May 2022
Orbit: 976 x 1218 km, 63.8° (Epoch: 20 June)

Event Time Altitude Azimuth Distance (km) Brightness Sun altitude
Rises 19:54:03 0° 313° (NW) 3,901 8.4 -6.6°
Reaches altitude 10° 19:56:45 10° 318° (NW) 2,977 6.9 -6.9°
Maximum altitude 20:03:43 54° 35° (NE) 1,386 3.4 -7.6°
Drops below altitude 10° 20:11:02 10° 112° (ESE) 3,123 4.6 -8.4°
Enters shadow 20:12:05 - 114° (ESE) 3,475 4.8 -8.5°
